This is the latest recevied weather packets stored in our database for station/object W0AKO. If no packets are shown the sender has not sent any weather packets the latest 10 day(s).
| Time | Temp. | Humidity | Pressure | Rain* | Wind** | Luminosity | Snow |
|---|---|---|---|---|---|---|---|
| 1777390719 | 13.89° C | 10% | 1020.8 hPa | 0 mm | - | 282 W/m² | - |
| 1777390416 | 13.33° C | 10% | 1020.9 hPa | 0 mm | - | 265 W/m² | - |
| 1777390112 | 13.33° C | 10% | 1020.9 hPa | 0 mm | - | 248 W/m² | - |
| 1777389809 | 13.33° C | 10% | 1020.7 hPa | 0 mm | - | 238 W/m² | - |
| 1777389506 | 12.78° C | 10% | 1020.7 hPa | 0 mm | - | 244 W/m² | - |
| 1777389202 | 12.22° C | 10% | 1020.9 hPa | 0 mm | - | 262 W/m² | - |
| 1777388901 | 12.22° C | 10% | 1020.7 hPa | 0 mm | - | 262 W/m² | - |
| 1777388597 | 12.22° C | 10% | 1020.8 hPa | 0 mm | - | 245 W/m² | - |
| 1777388293 | 12.22° C | 10% | 1020.6 hPa | 0 mm | - | 212 W/m² | - |
| 1777387987 | 12.22° C | 10% | 1020.7 hPa | 0 mm | - | 196 W/m² | - |
| 1777387684 | 12.78° C | 10% | 1020.6 hPa | 0 mm | - | 143 W/m² | - |
| 1777387381 | 12.22° C | 10% | 1020.7 hPa | 0 mm | - | 52 W/m² | - |
| 1777387075 | 12.22° C | 10% | 1020.6 hPa | 0 mm | - | 150 W/m² | - |
| 1777386771 | 11.67° C | 10% | 1020.6 hPa | 0 mm | - | 138 W/m² | - |
| 1777386469 | 11.67° C | 10% | 1020.4 hPa | 0 mm | - | 134 W/m² | - |
| 1777386165 | 11.67° C | 10% | 1020.5 hPa | 0 mm | - | 121 W/m² | - |
| 1777385862 | 11.11° C | 10% | 1020.4 hPa | 0 mm | - | 113 W/m² | - |
| 1777385559 | 10.56° C | 10% | 1020.3 hPa | 0 mm | - | 104 W/m² | - |
| 1777385257 | 10° C | 10% | 1020.2 hPa | 0 mm | - | 103 W/m² | - |
| 1777384952 | 10° C | 10% | 1020 hPa | 0 mm | - | 96 W/m² | - |
| 1777384650 | 10° C | 10% | 1020.1 hPa | 0 mm | - | 92 W/m² | - |
| 1777384350 | 9.44° C | 10% | 1019.9 hPa | 0 mm | - | 83 W/m² | - |
| 1777384046 | 8.89° C | 10% | 1019.9 hPa | 0 mm | - | 72 W/m² | - |
| 1777383742 | 8.33° C | 10% | 1020.2 hPa | 0 mm | - | 53 W/m² | - |
| 1777383438 | 7.78° C | 10% | 1020 hPa | 0 mm | - | 46 W/m² | - |
* Rain latest hour (hover to see other rain measurements)
** Current wind speed in m/s (hover to see current wind gust speed)